Change the Weather History Date:

Monday, December 23, 2013

  Actual Average Record
Temperature  
Mean Temperature 20 °F -  
Max Temperature 30 °F 35 °F 57 °F (1982)
Min Temperature 10 °F 22 °F -15 °F (1989)
Degree Days  
Heating Degree Days 45    
Moisture  
Dew Point 15 °F    
Average Humidity 84    
Maximum Humidity 93    
Minimum Humidity 72    
Precipitation  
Precipitation 0.01 in - - ()
Sea Level Pressure  
Sea Level Pressure 30.31 in    
Wind  
Wind Speed 15 mph (West)    
Max Wind Speed 20 mph    
Max Gust Speed 25 mph    
Visibility 4 miles    
Events Snow    
Averages and records for this station are not official NWS values.
T = Trace of Precipitation, MM = Missing Value Source: NWS Daily Summary

Daily Weather History Graph

Daily Weather History Graph

Search for Another Location

Airport or City:

Trip Planner

Search our weather history database for the weather conditions in past years. The results will help you decide how hot, cold, wet, or windy it might be!

Date:

Astronomy

Dec. 23, 2013 Rise Set
Actual Time 8:11 AM EST 5:18 PM EST
Civil Twilight 7:40 AM EST 5:50 PM EST
Nautical Twilight 7:04 AM EST 6:25 PM EST
Astronomical Twilight 6:30 AM EST 6:59 PM EST
Moon 11:33 PM EST (12/23) 11:31 AM EST (12/23)
Length of Visible Light 10h 09m
Length of Day
9h 06m
Waning Gibbous, 68% of the Moon is Illuminated
Dec 23
Waning Gibbous
Dec 25
Last Quarter
Jan 1
New
Jan 7
First Quarter
Jan 15
Full

Hourly Weather History & Observations

Time (EST) Temp. Windchill Dew Point Humidity Pressure Visibility Wind Dir Wind Speed Gust Speed Precip Events Conditions
12:53 AM 30.9 °F 21.2 °F 27.0 °F 85% 30.07 in 6.0 mi West 12.7 mph - 0.00 in Snow Light Snow
1:53 AM 30.0 °F 19.1 °F 26.1 °F 85% 30.09 in 8.0 mi West 15.0 mph 20.7 mph 0.00 in   Overcast
2:21 AM 30.2 °F 19.8 °F 26.6 °F 86% 30.07 in 8.0 mi West 13.8 mph - N/A   Overcast
2:29 AM 28.4 °F 17.0 °F 26.6 °F 93% 30.08 in 6.0 mi West 15.0 mph - 0.00 in Snow Light Snow
2:53 AM 28.9 °F 18.6 °F 25.0 °F 85% 30.12 in 10.0 mi West 12.7 mph - 0.00 in   Overcast
3:53 AM 28.9 °F 18.2 °F 25.0 °F 85% 30.14 in 7.0 mi West 13.8 mph - 0.00 in Snow Light Snow
4:53 AM 28.0 °F 17.0 °F 24.1 °F 85% 30.15 in 6.0 mi West 13.8 mph - 0.00 in Snow Light Snow
5:28 AM 26.6 °F 16.2 °F 24.8 °F 93% 30.14 in 2.5 mi West 11.5 mph - 0.00 in Snow Light Snow
5:53 AM 27.0 °F 15.6 °F 24.1 °F 89% 30.17 in 3.0 mi West 13.8 mph 19.6 mph 0.00 in Snow Light Snow
6:53 AM 27.0 °F 15.2 °F 19.9 °F 75% 30.20 in 10.0 mi West 15.0 mph 21.9 mph 0.00 in   Overcast
7:53 AM 27.0 °F 14.7 °F 19.0 °F 72% 30.24 in 10.0 mi WNW 16.1 mph - N/A   Overcast
8:53 AM 27.0 °F 15.6 °F 19.9 °F 75% 30.26 in 9.0 mi West 13.8 mph - N/A   Overcast
9:53 AM 26.1 °F 15.0 °F 19.9 °F 78% 30.28 in 3.0 mi West 12.7 mph 21.9 mph 0.00 in Snow Light Snow
10:13 AM 26.6 °F 16.2 °F 21.2 °F 80% 30.27 in 2.0 mi West 11.5 mph - 0.00 in Snow Light Snow
10:33 AM 26.6 °F 15.7 °F 21.2 °F 80% 30.27 in 1.5 mi WSW 12.7 mph - 0.01 in Snow Light Snow
10:39 AM 26.6 °F 14.3 °F 21.2 °F 80% 30.27 in 3.0 mi West 16.1 mph 23.0 mph 0.01 in Snow Light Snow
10:53 AM 26.1 °F 15.6 °F 21.9 °F 84% 30.30 in 4.0 mi WSW 11.5 mph - 0.01 in Snow Light Snow
11:53 AM 26.1 °F 14.0 °F 19.9 °F 78% 30.31 in 9.0 mi WSW 15.0 mph 23.0 mph 0.00 in   Overcast
12:53 PM 25.0 °F 13.1 °F 19.9 °F 81% 30.30 in 10.0 mi WSW 13.8 mph - 0.00 in   Overcast
1:53 PM 24.1 °F 12.0 °F 19.0 °F 81% 30.31 in 10.0 mi WSW 13.8 mph 24.2 mph N/A   Overcast
2:35 PM 23.0 °F 10.6 °F 19.4 °F 86% 30.28 in 1.8 mi WSW 13.8 mph 24.2 mph 0.00 in Snow Light Snow
2:46 PM 23.0 °F 10.1 °F 19.4 °F 86% 30.29 in 3.0 mi WSW 15.0 mph 23.0 mph 0.00 in Snow Light Snow
2:53 PM 23.0 °F 8.7 °F 19.0 °F 85% 30.31 in 7.0 mi SW 18.4 mph 25.3 mph 0.00 in   Overcast
3:53 PM 21.9 °F 7.3 °F 16.0 °F 78% 30.33 in 10.0 mi WSW 18.4 mph - N/A   Overcast
4:53 PM 21.0 °F 8.1 °F 14.0 °F 74% 30.34 in 10.0 mi WSW 13.8 mph 21.9 mph N/A   Overcast
5:53 PM 19.0 °F 4.5 °F 12.9 °F 77% 30.35 in 9.0 mi WSW 16.1 mph - 0.00 in   Overcast
6:53 PM 18.0 °F 3.1 °F 12.0 °F 78% 30.38 in 10.0 mi West 16.1 mph - N/A   Overcast
7:53 PM 16.0 °F 0.6 °F 10.9 °F 81% 30.40 in 7.0 mi West 16.1 mph 24.2 mph 0.00 in Snow Light Snow
8:53 PM 15.1 °F 0.5 °F 10.9 °F 84% 30.41 in 2.5 mi WSW 13.8 mph - 0.00 in Snow Light Snow
9:01 PM 15.8 °F 0.3 °F 10.4 °F 79% 30.37 in 3.0 mi WSW 16.1 mph - 0.00 in Snow Light Snow
9:09 PM 15.8 °F 0.3 °F 10.4 °F 79% 30.37 in 2.0 mi WSW 16.1 mph - 0.00 in Snow Light Snow
9:19 PM 14.0 °F -2.0 °F 10.4 °F 86% 30.37 in 1.2 mi WSW 16.1 mph - 0.00 in Snow Light Snow
9:35 PM 12.2 °F -3.7 °F 10.4 °F 92% 30.37 in 1.5 mi WSW 15.0 mph 24.2 mph 0.00 in Snow Light Snow
9:43 PM 12.2 °F -4.8 °F 10.4 °F 92% 30.38 in 2.0 mi West 17.3 mph 24.2 mph 0.00 in Snow Light Snow
9:48 PM 12.2 °F -4.3 °F 8.6 °F 85% 30.37 in 3.0 mi West 16.1 mph - 0.00 in Snow Light Snow
9:53 PM 12.9 °F -3.4 °F 9.0 °F 84% 30.41 in 2.5 mi West 16.1 mph - 0.00 in Snow Light Snow
9:59 PM 12.2 °F -4.8 °F 8.6 °F 85% 30.38 in 1.5 mi West 17.3 mph 21.9 mph 0.00 in Snow Light Snow
10:01 PM 12.2 °F -4.8 °F 8.6 °F 85% 30.38 in 1.0 mi West 17.3 mph 21.9 mph 0.00 in Snow Light Snow
10:12 PM 12.2 °F -4.3 °F 8.6 °F 85% 30.37 in 2.0 mi West 16.1 mph - 0.00 in Snow Light Snow
10:23 PM 12.2 °F -4.3 °F 8.6 °F 85% 30.37 in 1.5 mi West 16.1 mph - 0.00 in Snow Light Snow
10:27 PM 12.2 °F -5.8 °F 8.6 °F 85% 30.38 in 1.5 mi West 19.6 mph - 0.00 in Snow Light Snow
10:31 PM 12.2 °F -5.3 °F 8.6 °F 85% 30.37 in 2.0 mi West 18.4 mph - 0.00 in Snow Light Snow
10:35 PM 12.2 °F -3.7 °F 8.6 °F 85% 30.37 in 3.0 mi WSW 15.0 mph - 0.00 in Snow Light Snow
10:40 PM 12.2 °F -4.3 °F 8.6 °F 85% 30.37 in 1.8 mi West 16.1 mph - 0.00 in Snow Light Snow
10:42 PM 12.2 °F -3.7 °F 8.6 °F 85% 30.37 in 1.2 mi West 15.0 mph - 0.00 in Snow Light Snow
10:53 PM 12.0 °F -5.1 °F 8.1 °F 84% 30.41 in 1.5 mi West 17.3 mph - 0.00 in Snow Light Snow
10:56 PM 12.2 °F -3.7 °F 8.6 °F 85% 30.37 in 2.0 mi West 15.0 mph - 0.00 in Snow Light Snow
11:01 PM 12.2 °F -4.8 °F 8.6 °F 85% 30.37 in 1.5 mi West 17.3 mph - 0.00 in Snow Light Snow
11:03 PM 12.2 °F -4.3 °F 8.6 °F 85% 30.37 in 1.2 mi West 16.1 mph - 0.00 in Snow Light Snow
11:13 PM 12.2 °F -5.3 °F 8.6 °F 85% 30.37 in 2.0 mi WSW 18.4 mph - 0.00 in Snow Light Snow
11:18 PM 10.4 °F -4.8 °F 8.6 °F 92% 30.37 in 1.2 mi WSW 12.7 mph 23.0 mph 0.00 in Snow Light Snow
11:31 PM 10.4 °F -7.2 °F 8.6 °F 92% 30.37 in 2.0 mi WSW 17.3 mph - 0.00 in Snow Light Snow
11:36 PM 12.2 °F -3.1 °F 8.6 °F 85% 30.37 in 1.2 mi WSW 13.8 mph - 0.00 in Snow Light Snow
11:53 PM 12.0 °F -3.4 °F 8.1 °F 84% 30.41 in 1.8 mi WSW 13.8 mph - 0.00 in Snow Light Snow